| time (UTC) | temp C | wind direction | speed KPH | gust KPH | rain 1hr cm | rain 24hr cm | rain mn cm | humidity % | barometer mb |
| 20260508024544 | 8 | 0 | 0.0 | 1.6 | 0.00 | 0.03 | 0.00 | 55 | 1007.3 |
| 20260508023034 | 9 | 0 | 0.0 | 4.8 | 0.00 | 0.03 | 0.00 | 52 | 1007.1 |
| 20260508021536 | 8 | 319 | 0.0 | 3.2 | 0.00 | 0.03 | 0.00 | 62 | 1006.8 |
| 20260508020044 | 8 | 0 | 0.0 | 3.2 | 0.00 | 0.03 | 0.00 | 61 | 1006.4 |
| 20260508014551 | 8 | 0 | 0.0 | 1.6 | 0.00 | 0.03 | 0.00 | 66 | 1006.4 |
| 20260508013045 | 9 | 0 | 0.0 | 4.8 | 0.00 | 0.03 | 0.00 | 63 | 1006.0 |
| 20260508011541 | 10 | 271 | 0.0 | 1.6 | 0.00 | 0.03 | 0.00 | 56 | 1005.9 |
| 20260508010034 | 10 | 0 | 0.0 | 0.0 | 0.00 | 0.03 | 0.00 | 56 | 1005.9 |
| 20260508004538 | 11 | 0 | 0.0 | 1.6 | 0.00 | 0.05 | 0.00 | 46 | 1005.7 |
| 20260508003053 | 12 | 0 | 0.0 | 4.8 | 0.00 | 0.05 | 0.00 | 42 | 1005.6 |
| 20260508001545 | 12 | 0 | 0.0 | 4.8 | 0.00 | 0.05 | 0.00 | 39 | 1005.3 |
| 20260508000045 | 13 | 267 | 1.6 | 6.4 | 0.00 | 0.05 | 0.00 | 36 | 1005.2 |
| 20260507234540 | 13 | 0 | 0.0 | 6.4 | 0.00 | 0.05 | 0.00 | 37 | 1005.1 |
| 20260507233040 | 14 | 299 | 1.6 | 6.4 | 0.00 | 0.05 | 0.00 | 34 | 1005.0 |
| 20260507231541 | 14 | 271 | 1.6 | 6.4 | 0.00 | 0.05 | 0.00 | 34 | 1004.9 |
| 20260507230038 | 15 | 247 | 6.4 | 17.7 | 0.00 | 0.05 | 0.00 | 32 | 1004.8 |
| 20260507224545 | 15 | 310 | 4.8 | 16.1 | 0.00 | 0.15 | 0.00 | 33 | 1004.6 |
| 20260507223052 | 15 | 296 | 6.4 | 14.5 | 0.00 | 0.15 | 0.00 | 32 | 1004.4 |
| 20260507221537 | 15 | 293 | 3.2 | 17.7 | 0.00 | 0.15 | 0.00 | 32 | 1004.4 |
| 20260507220045 | 16 | 270 | 6.4 | 14.5 | 0.00 | 0.15 | 0.00 | 31 | 1004.2 |
| 20260507214542 | 16 | 340 | 4.8 | 12.9 | 0.00 | 0.28 | 0.00 | 32 | 1004.2 |
| 20260507213041 | 16 | 262 | 4.8 | 16.1 | 0.00 | 0.28 | 0.00 | 31 | 1004.2 |
| 20260507211549 | 17 | 254 | 6.4 | 14.5 | 0.00 | 0.28 | 0.00 | 32 | 1004.3 |
| 20260507210040 | 17 | 271 | 4.8 | 16.1 | 0.00 | 0.28 | 0.00 | 33 | 1004.3 |
| 20260507204537 | 16 | 257 | 4.8 | 16.1 | 0.00 | 0.48 | 0.00 | 34 | 1003.9 |
| 20260507203044 | 16 | 281 | 6.4 | 16.1 | 0.00 | 0.48 | 0.00 | 34 | 1004.2 |
| 20260507201540 | 16 | 293 | 4.8 | 19.3 | 0.00 | 0.48 | 0.00 | 32 | 1004.0 |
| 20260507200042 | 17 | 281 | 8.0 | 12.9 | 0.00 | 0.48 | 0.00 | 33 | 1004.0 |
| 20260507194541 | 17 | 276 | 6.4 | 14.5 | 0.00 | 0.58 | 0.00 | 34 | 1004.1 |
| 20260507193041 | 17 | 281 | 3.2 | 14.5 | 0.00 | 0.58 | 0.00 | 36 | 1004.2 |
| 20260507191548 | 17 | 294 | 6.4 | 20.9 | 0.00 | 0.58 | 0.00 | 30 | 1004.2 |
| 20260507190041 | 16 | 238 | 8.0 | 22.5 | 0.00 | 0.58 | 0.00 | 35 | 1004.4 |
| 20260507184534 | 16 | 5 | 4.8 | 22.5 | 0.00 | 0.58 | 0.00 | 38 | 1004.2 |
| 20260507183034 | 16 | 275 | 6.4 | 17.7 | 0.00 | 0.58 | 0.00 | 40 | 1004.5 |
| 20260507181533 | 16 | 274 | 8.0 | 17.7 | 0.00 | 0.58 | 0.00 | 40 | 1004.4 |
| 20260507180046 | 16 | 300 | 3.2 | 14.5 | 0.00 | 0.58 | 0.00 | 50 | 1004.4 |
| 20260507174539 | 15 | 288 | 3.2 | 12.9 | 0.00 | 0.58 | 0.00 | 53 | 1004.4 |
| 20260507173036 | 15 | 310 | 6.4 | 16.1 | 0.00 | 0.58 | 0.00 | 49 | 1004.5 |
| 20260507171535 | 15 | 182 | 6.4 | 17.7 | 0.00 | 0.58 | 0.00 | 49 | 1004.7 |
| 20260507170035 | 15 | 303 | 6.4 | 17.7 | 0.00 | 0.58 | 0.00 | 48 | 1004.9 |
| 20260507164540 | 14 | 283 | 6.4 | 19.3 | 0.00 | 0.58 | 0.00 | 51 | 1005.1 |
| 20260507163040 | 14 | 286 | 6.4 | 16.1 | 0.00 | 0.58 | 0.00 | 53 | 1005.2 |
| 20260507161536 | 15 | 296 | 6.4 | 17.7 | 0.00 | 0.58 | 0.00 | 51 | 1005.0 |
| 20260507160038 | 13 | 300 | 0.0 | 6.4 | 0.00 | 0.58 | 0.00 | 62 | 1005.6 |
| 20260507154541 | 14 | 162 | 3.2 | 11.3 | 0.00 | 0.58 | 0.00 | 61 | 1005.7 |
| 20260507153040 | 13 | 180 | 1.6 | 4.8 | 0.00 | 0.58 | 0.00 | 66 | 1005.7 |
| 20260507151546 | 13 | 198 | 0.0 | 8.0 | 0.00 | 0.58 | 0.00 | 68 | 1006.0 |
| 20260507150040 | 14 | 176 | 1.6 | 6.4 | 0.00 | 0.58 | 0.00 | 64 | 1005.9 |
| 20260507144544 | 13 | 175 | 1.6 | 6.4 | 0.00 | 0.58 | 0.00 | 65 | 1005.8 |
| 20260507143044 | 13 | 229 | 3.2 | 6.4 | 0.00 | 0.58 | 0.00 | 65 | 1005.9 |
| 20260507141540 | 13 | 140 | 0.0 | 4.8 | 0.00 | 0.58 | 0.00 | 67 | 1006.0 |
| 20260507140056 | 13 | 123 | 1.6 | 6.4 | 0.00 | 0.58 | 0.00 | 69 | 1006.2 |
| 20260507134536 | 13 | 25 | 1.6 | 4.8 | 0.00 | 0.58 | 0.00 | 66 | 1006.4 |
| 20260507133046 | 12 | 272 | 1.6 | 9.7 | 0.00 | 0.58 | 0.00 | 67 | 1006.4 |
| 20260507131547 | 12 | 296 | 1.6 | 9.7 | 0.00 | 0.58 | 0.00 | 70 | 1006.6 |
| 20260507130043 | 12 | 322 | 1.6 | 6.4 | 0.00 | 0.58 | 0.00 | 73 | 1006.7 |
| 20260507124540 | 11 | 311 | 0.0 | 6.4 | 0.00 | 0.58 | 0.00 | 73 | 1006.6 |
| 20260507123042 | 11 | 265 | 1.6 | 11.3 | 0.00 | 0.58 | 0.00 | 75 | 1006.7 |
| 20260507121545 | 10 | 19 | 0.0 | 8.0 | 0.00 | 0.58 | 0.00 | 81 | 1006.9 |
| 20260507120044 | 9 | 360 | 1.6 | 8.0 | 0.00 | 0.58 | 0.00 | 86 | 1006.7 |
| 20260507114544 | 9 | 360 | 0.0 | 4.8 | 0.00 | 0.58 | 0.00 | 90 | 1006.7 |
| 20260507113041 | 8 | 0 | 1.6 | 4.8 | 0.00 | 0.58 | 0.00 | 91 | 1006.8 |
| 20260507111544 | 8 | 284 | 0.0 | 3.2 | 0.00 | 0.58 | 0.00 | 93 | 1006.5 |
| 20260507110036 | 8 | 0 | 0.0 | 1.6 | 0.00 | 0.58 | 0.00 | 93 | 1006.7 |
| 20260507104544 | 8 | 0 | 0.0 | 1.6 | 0.00 | 0.58 | 0.00 | 94 | 1006.8 |
| 20260507103043 | 8 | 0 | 0.0 | 3.2 | 0.00 | 0.58 | 0.00 | 93 | 1006.6 |
| 20260507101558 | 8 | 0 | 0.0 | 1.6 | 0.00 | 0.58 | 0.00 | 93 | 1006.6 |
| 20260507100039 | 8 | 0 | 0.0 | 3.2 | 0.00 | 0.58 | 0.00 | 93 | 1006.8 |
| 20260507094555 | 8 | 0 | 0.0 | 6.4 | 0.00 | 0.58 | 0.00 | 92 | 1006.5 |
| 20260507093044 | 8 | 0 | 0.0 | 3.2 | 0.00 | 0.58 | 0.00 | 93 | 1006.1 |
| 20260507091555 | 8 | 0 | 0.0 | 3.2 | 0.00 | 0.58 | 0.00 | 92 | 1006.5 |
| 20260507090058 | 8 | 0 | 0.0 | 3.2 | 0.00 | 0.58 | 0.00 | 91 | 1005.8 |
| 20260507084536 | 9 | 0 | 0.0 | 3.2 | 0.00 | 0.58 | 0.00 | 90 | 1005.8 |
| 20260507083035 | 9 | 360 | 0.0 | 6.4 | 0.00 | 0.58 | 0.00 | 89 | 1006.0 |
| 20260507081552 | 9 | 360 | 1.6 | 6.4 | 0.00 | 0.58 | 0.00 | 88 | 1006.0 |
| 20260507080045 | 10 | 360 | 1.6 | 6.4 | 0.00 | 0.58 | 0.00 | 88 | 1005.8 |
| 20260507074544 | 10 | 360 | 1.6 | 6.4 | 0.00 | 0.58 | 0.00 | 88 | 1005.5 |
| 20260507073053 | 10 | 360 | 1.6 | 6.4 | 0.00 | 0.58 | 0.00 | 89 | 1005.3 |
| 20260507071535 | 10 | 0 | 0.0 | 4.8 | 0.00 | 0.58 | 0.00 | 89 | 1005.5 |
| 20260507070121 | 10 | 360 | 0.0 | 8.0 | 0.00 | 0.58 | 0.00 | 88 | 1004.8 |
| 20260507064548 | 10 | 360 | 3.2 | 8.0 | 0.00 | 0.58 | 0.00 | 88 | 1004.9 |
| 20260507063041 | 10 | 360 | 1.6 | 6.4 | 0.00 | 0.58 | 0.00 | 89 | 1005.1 |
| 20260507061539 | 10 | 360 | 3.2 | 9.7 | 0.00 | 0.58 | 0.00 | 89 | 1005.0 |
| 20260507060040 | 11 | 360 | 1.6 | 6.4 | 0.00 | 0.58 | 0.00 | 90 | 1004.9 |
| 20260507054550 | 11 | 360 | 1.6 | 6.4 | 0.00 | 0.58 | 0.00 | 91 | 1005.0 |
| 20260507053045 | 11 | 360 | 1.6 | 8.0 | 0.00 | 0.58 | 0.00 | 91 | 1004.3 |
| 20260507051543 | 11 | 360 | 3.2 | 12.9 | 0.00 | 0.58 | 0.00 | 92 | 1004.7 |
| 20260507050041 | 11 | 360 | 3.2 | 14.5 | 0.00 | 0.58 | 0.00 | 93 | 1004.5 |
| 20260507044544 | 11 | 360 | 1.6 | 12.9 | 0.00 | 0.58 | 0.00 | 95 | 1004.4 |
| 20260507043044 | 12 | 360 | 3.2 | 12.9 | 0.00 | 0.58 | 0.00 | 97 | 1004.3 |
| 20260507041544 | 12 | 360 | 3.2 | 12.9 | 0.00 | 0.58 | 0.00 | 98 | 1003.7 |
| 20260507040049 | 11 | 0 | 1.6 | 6.4 | 0.00 | 0.58 | 0.00 | 98 | 1003.9 |
| 20260507034541 | 10 | 0 | 0.0 | 3.2 | 0.00 | 0.58 | 0.58 | 97 | 1004.2 |
| 20260507033035 | 10 | 0 | 0.0 | 4.8 | 0.03 | 0.58 | 0.58 | 97 | 1004.1 |
| 20260507031544 | 10 | 0 | 0.0 | 3.2 | 0.03 | 0.58 | 0.58 | 97 | 1003.7 |
| 20260507030047 | 10 | 0 | 0.0 | 3.2 | 0.03 | 0.58 | 0.58 | 97 | 1003.6 |